Terminal Aerodrome Forecast
Issued by NWS

Home | Current Version | Previous Version | Text Only | Print | Product List | Glossary On
Versions: 1 2 3 4 5 6 7 8 9 10 11 12 13 14 15 16 17 18
484
FTUS45 KMSO 131509 AAA
TAFSMN
TAF AMD
KSMN 131509Z 1315/1412 21008KT 6SM -SN BKN030 OVC060
      TEMPO 1315/1316 3SM -SN BKN009 BKN030 OVC050
     FM131600 33011G17KT P6SM VCSH BKN050
     FM140100 32006KT P6SM BKN050
      AMD LTD TO CLD VIS AND WIND=

USA.gov is the U.S. government's official web portal to all federal, state and local government web resources and services.